This is the latest recevied weather packets stored in our database for station/object NN5DX-12. If no packets are shown the sender has not sent any weather packets the latest 10 day(s).
| Time | Temp. | Humidity | Pressure | Rain* | Wind** | Luminosity | Snow |
|---|---|---|---|---|---|---|---|
| 1778147117 | -3.89° C | 89% | 1021.1 hPa | 0 mm | - | - | - |
| 1778146817 | -3.89° C | 90% | 1021.6 hPa | 0 mm | - | - | - |
| 1778146517 | -3.89° C | 90% | 1021.6 hPa | 0 mm | - | - | - |
| 1778146217 | -3.89° C | 90% | 1021.8 hPa | 0 mm | - | - | - |
| 1778145917 | -3.89° C | 89% | 1021.9 hPa | 0 mm | - | - | - |
| 1778145617 | -3.89° C | 89% | 1021.9 hPa | 0 mm | - | - | - |
| 1778145317 | -3.89° C | 89% | 1021.3 hPa | 0 mm | - | - | - |
| 1778145017 | -3.89° C | 90% | 1021.3 hPa | 0 mm | - | - | - |
| 1778144717 | -4.44° C | 89% | 1021.2 hPa | 0 mm | - | - | - |
| 1778144417 | -4.44° C | 88% | 1021.2 hPa | 0 mm | - | - | - |
| 1778144117 | -4.44° C | 87% | 1021.2 hPa | 0 mm | - | - | - |
| 1778143816 | -3.89° C | 87% | 1021.2 hPa | 0 mm | - | - | - |
| 1778143517 | -3.89° C | 87% | 1021.3 hPa | 0 mm | - | - | - |
| 1778143217 | -3.89° C | 86% | 1021.2 hPa | 0 mm | - | - | - |
| 1778142917 | -3.89° C | 86% | 1021.2 hPa | 0 mm | - | - | - |
| 1778142617 | -3.89° C | 85% | 1021.1 hPa | 0 mm | - | - | - |
| 1778142317 | -3.89° C | 84% | 1021.1 hPa | 0 mm | - | - | - |
| 1778142017 | -3.33° C | 84% | 1021.3 hPa | 0 mm | - | - | - |
| 1778141717 | -3.33° C | 83% | 1021.4 hPa | 0 mm | - | - | - |
| 1778141417 | -3.33° C | 82% | 1021.3 hPa | 0 mm | - | - | - |
| 1778141117 | -2.78° C | 78% | 1021.3 hPa | 0 mm | - | - | - |
| 1778140816 | -2.78° C | 77% | 1021.5 hPa | 0 mm | - | - | - |
| 1778140516 | -2.22° C | 75% | 1022 hPa | 0 mm | - | - | - |
| 1778140217 | -1.67° C | 72% | 1021.8 hPa | 0 mm | - | - | - |
| 1778139917 | -1.11° C | 66% | 1022.4 hPa | 0 mm | - | - | - |
* Rain latest hour (hover to see other rain measurements)
** Current wind speed in m/s (hover to see current wind gust speed)